Terug naar catalogus

FENGYUN 1C DEB

ActiefSSO
NORAD 35245·DEBRIS·🇨🇳 China

Gelanceerd May 10, 1999 vanaf Taiyuan Satellite Launch Center

Loading…

Volgende Passages (komende 24 uur)

TLE

VersSource: Space-Track

Epoch: Sep 13, 2026, 17:56 UTC

1 35245U 99025DRD 26256.74774743  .00002019  00000-0  10577-2 0  9992
2 35245  99.0794 351.5682 0058707 214.1383 298.4426 14.14586450916636

Volg FENGYUN 1C DEB in realtime met AllMySat

Download on the App Store